GORIZONT 19 [-]

Last updated on Aug. 14, 2020, 5:30 a.m. UTC

1 20263U 89081A   20225.95440418 -.00000256  00000-0  00000-0 0  9999
2 20263  14.2998 350.0701 0001960 307.5122  97.8500  1.00348782 25942
UTC
Height (km)
Latitude
Longitude
Inclination
Orbital Period
UTC large
Height (km)
Speed (km/s)
/
Latitude / Longitude
Inclination (degrees)
Orbital Period (minutes)
Azimuth
Elevation
Range (km)
Doppler Factor
iOS Compass Heading
iOS Angle

Next 30 passes for location: Hong Kong

Rise time Rise Azimuth (degrees) Set time Set Azimuth (degrees) Duration Max altitude (degrees)

No matching passes for this satellites